Location: Dr�vez
(47.9777°N, 4.3157°W)
Time: 05:11:41
(UTC+00:00)

Daily predictions for brighter satellites

Satellite Brightness Start Highest point End
(mag) Time Altitude Azimuth Time Altitude Azimuth Time Altitude Azimuth
Cosmos 1025 Rocket 4.1 00:03:11 10° N 00:06:21 41° NNE 00:06:21 41° NNE
SJ 16-02 3.7 00:09:53 15° ENE 00:09:53 15° ENE 00:11:20 10° NE
USA 267 4.2 00:02:34 10° NE 00:08:45 46° NNW 00:14:55 10° W
Okean 2 Rocket 4.0 00:10:41 44° NE 00:10:41 44° NE 00:14:00 10° NNE
Cosmos 2360 Rocket 4.5 00:08:59 10° W 00:10:27 11° W 00:10:43 11° W
Cosmos 1538 Rocket 4.1 00:06:12 10° NNW 00:11:04 73° NNE 00:11:04 73° NNE
SL-16 R/B 3.0 00:07:05 10° NNW 00:12:34 45° NE 00:13:47 39° E
Cosmos 1975 4.3 00:15:44 34° NW 00:15:44 34° NW 00:18:32 10° N
Nadezhda 4 Rocket 3.8 00:08:57 10° N 00:15:17 88° E 00:15:44 78° SSE
NOSS 0 Rocket 4.3 00:14:20 10° NW 00:20:10 50° WSW 00:20:10 50° WSW
Cosmos 2297 Rocket 2.2 00:28:55 73° E 00:28:55 73° E 00:34:16 10° NNE
Sich 1 Rocket 4.4 00:30:37 46° NNW 00:30:37 46° NNW 00:34:01 10° N
Cosmos 2344 4.3 00:22:06 10° NW 00:31:34 83° SW 00:38:10 34° SSE
ALOS 2 4.3 00:33:27 25° WNW 00:33:27 25° WNW 00:36:02 10° NW
Cosmos 1980 4.2 00:28:31 10° NW 00:33:21 49° W 00:33:21 49° W
COSMOS 2428 4.3 00:30:11 10° NW 00:33:49 22° W 00:33:49 22° W
Cosmos 1092 Rocket 3.8 00:29:46 10° N 00:36:02 80° E 00:36:34 73° SE
In-Cosmos 22 4.1 00:31:01 10° NNW 00:36:23 84° NNW 00:36:23 84° NNW
Cosmos 2034 Rocket 4.0 00:37:47 66° WSW 00:38:25 71° W 00:44:46 10° N
DNEPR-1 R/B 4.4 00:34:14 10° NW 00:38:57 54° WNW 00:38:57 54° WNW
Cosmos 2219 3.1 00:41:47 78° WNW 00:41:52 78° WNW 00:47:31 10° NNE
Cosmos 2237 Rocket 2.8 00:36:35 10° NW 00:41:12 45° W 00:41:12 45° W
Cosmos 2151 Rocket 4.3 00:43:30 52° NNE 00:43:30 52° NNE 00:46:52 10° N
Meteor 1-15 Rocket 4.5 00:43:08 55° E 00:43:08 55° E 00:48:35 10° NNE
Helios 1A 4.3 00:45:29 34° NW 00:45:29 34° NW 00:48:10 10° NNW
Lacrosse 4 Rocket 4.3 00:48:00 10° NW 00:49:36 12° NNW 00:51:11 10° N
Cosmos 1536 Rocket 4.5 00:46:41 10° NNW 00:49:46 44° NNW 00:49:46 44° NNW
Cosmos 1680 Rocket 3.8 00:45:58 10° NNW 00:51:09 59° ENE 00:51:28 58° E
Cosmos 1674 4.3 00:47:40 10° N 00:49:53 33° N 00:49:53 33° N
CZ-4 R/B 4.1 00:46:40 10° NNE 00:51:18 71° ENE 00:51:18 71° ENE
Cosmos 2333 Rocket 4.4 00:49:39 10° WNW 00:51:29 13° W 00:51:29 13° W
Cosmos 1461 4.2 00:55:29 38° ENE 00:55:29 38° ENE 00:58:32 10° NE
Cosmos 1777 Rocket 4.3 00:56:11 56° WNW 00:56:18 56° WNW 01:01:33 10° NNE
PSLV R/B 4.0 01:01:57 10° N 01:06:13 65° NNW 01:06:13 65° NNW
Cosmos 1375 Rocket 4.4 01:05:50 68° SW 01:06:47 90° SE 01:13:27 10° NE
CZ-2D R/B 3.5 01:02:30 10° NE 01:07:11 28° E 01:08:00 27° ESE
SL-16 R/B 3.3 01:09:25 30° ESE 01:12:09 48° ENE 01:18:07 10° N
Cosmos 1607 4.1 01:08:21 10° NW 01:14:32 58° WSW 01:14:32 58° WSW
Cosmos 1626 3.6 01:12:45 10° N 01:15:17 36° NNE 01:15:17 36° NNE
Cosmos 1655 Rocket 4.5 01:10:25 10° N 01:16:34 55° ENE 01:18:26 40° SE
Cosmos 2227 Rocket 2.5 01:18:32 53° W 01:19:14 57° WNW 01:24:50 10° NNE
Cosmos 923 Rocket 4.3 01:19:03 10° NNW 01:23:41 56° WNW 01:23:41 56° WNW
Meteor 2-5 Rocket 3.5 01:19:06 10° NNW 01:24:44 88° WSW 01:25:04 80° S
Meteor 1-22 Rocket 4.3 01:25:04 57° ESE 01:25:26 59° E 01:30:44 10° NNE
Helios 1B rocket 3.2 01:22:45 10° N 01:25:58 49° NNW 01:25:58 49° NNW
Cosmos 2026 Rocket 4.0 01:22:38 10° NNW 01:28:37 57° W 01:29:05 56° WSW
Cosmos 2279 Rocket 3.9 01:29:43 65° S 01:30:44 85° E 01:36:58 10° N
Cosmos 1805 4.3 01:32:08 43° NNW 01:32:08 43° NNW 01:34:55 10° N
Resurs 1-4 Rocket 2.5 01:35:42 10° NNE 01:40:51 51° E 01:41:36 47° SE
Cosmos 2180 Rocket 4.4 01:39:58 60° S 01:41:10 81° E 01:47:20 10° N
Cosmos 2098 Rocket 4.1 01:38:35 10° N 01:44:09 67° E 01:46:32 40° SSE
NOSS 2-3 (E) 4.3 01:44:49 45° ESE 01:44:49 45° ESE 01:49:09 10° NE
Cosmos 2082 3.8 01:44:36 54° W 01:45:27 60° WNW 01:51:02 10° NNE
Okean 1 Rocket 3.8 01:46:41 42° NW 01:46:41 42° NW 01:50:22 10° N
Cosmos 1634 Rocket 4.4 01:45:25 45° WSW 01:46:28 49° WNW 01:52:29 10° N
SJ 16-02 1.8 01:46:52 52° NW 01:46:52 52° NW 01:50:54 10° NNE
NOSS 3-1 (C) 3.1 01:48:09 66° SSW 01:49:02 87° SE 01:55:31 10° NE
USA 267 4.4 01:44:58 10° ENE 01:51:01 42° N 01:57:03 10° WNW
SL-14 R/B 4.2 01:49:48 10° NNW 01:52:33 42° NNW 01:52:33 42° NNW
Meteor 2-19 Rocket 4.3 01:48:01 10° NNW 01:54:12 78° W 01:55:33 56° SSW
SL-16 R/B 3.1 01:51:29 10° NW 01:55:38 32° W 01:55:38 32° W
Cosmos 2263 Rocket 2.6 01:56:40 44° SE 01:57:42 49° ESE 02:03:04 10° NE
MOZ.5/SAFIR/RUBIN 5/SL-8 3.9 02:00:53 59° W 02:00:53 59° W 02:05:19 10° NNW
Cosmos 724 4.2 01:56:35 10° NW 02:02:34 68° WSW 02:03:52 53° S
CZ-4C R/B 3.8 02:05:30 51° NNW 02:05:30 51° NNW 02:08:20 10° NNW
Cosmos 1937 Rocket 3.4 02:07:18 64° SSW 02:08:09 86° WNW 02:13:31 10° NNE
NOSS 2-3 (D) 3.6 02:08:30 68° SE 02:08:40 68° SE 02:13:39 10° NE
SL-19 R/B 4.4 02:03:03 10° N 02:08:47 61° WNW 02:09:58 50° WSW
Okean 1-7 Rocket 3.5 02:04:22 10° NNW 02:08:38 70° W 02:08:38 70° W
COBE Rocket 4.1 02:08:32 41° SE 02:09:57 62° ENE 02:14:33 10° N
Cosmos 990 Rocket 4.2 02:09:50 52° W 02:10:36 57° WNW 02:15:43 10° NNE
Cosmos 1626 Rocket 3.9 02:07:51 10° N 02:12:09 59° ENE 02:13:03 47° SE
ADEOS II 3.1 02:07:28 10° NNE 02:12:24 39° E 02:14:31 28° SE
Cosmos 1455 Rocket 2.9 02:12:38 76° WSW 02:12:46 77° W 02:17:15 10° N
Cosmos 2297 Rocket 3.9 02:10:42 18° W 02:13:16 24° NW 02:17:49 10° N
ATLAS CENTAUR R/B 2.8 02:13:46 26° ESE 02:13:46 26° ESE 02:17:04 10° ENE
Cosmos 1726 2.9 02:14:19 42° E 02:14:23 42° E 02:17:51 10° NNE
CZ-4B R/B 3.9 02:10:48 10° NNE 02:15:26 50° E 02:16:40 40° SE
UNK 3.8 02:17:20 60° WSW 02:17:23 60° W 02:22:03 10° NNW
Cosmos 2266 Rocket 3.9 02:14:39 10° NNW 02:20:57 70° W 02:22:57 44° SSW
Cosmos 1898 Rocket 4.0 02:24:13 41° W 02:25:20 48° WNW 02:30:23 10° NNE
Cosmos 1892 Rocket 4.5 02:21:26 10° NNW 02:24:59 35° WNW 02:24:59 35° WNW
GEOS 3 Rocket 3.7 02:21:24 10° NE 02:26:50 76° SE 02:28:25 47° SSW
USA 229 DEB 3.7 02:24:11 38° WSW 02:26:51 70° NW 02:33:48 10° NE
USA 229 3.7 02:24:19 38° WSW 02:26:58 70° NW 02:33:53 10° NE
Meteor 1-21 Rocket 4.3 02:23:00 10° N 02:28:35 75° ENE 02:31:40 27° SSE
Meteor 2-21 4.4 02:22:32 10° N 02:28:39 80° E 02:32:12 27° SSE
CBERS-1 4.3 02:24:11 10° NNE 02:29:16 60° ESE 02:31:10 36° SSE
Cosmos 2084 4.1 02:28:47 41° SE 02:29:19 43° ESE 02:33:32 10° NE
Meteor 2-10 4.3 02:27:11 38° S 02:29:21 72° E 02:35:03 10° NNE
Meteor 1-24 Rocket 4.4 02:26:21 10° NNW 02:31:06 33° W 02:31:16 33° W
ARIANE 5 R/B 3.9 02:28:03 10° NNE 02:32:45 33° E 02:36:11 16° SSE
Cosmos 1932 4.4 02:26:19 10° NW 02:32:50 80° SW 02:39:12 10° SSE
NOSS 2-3 (C) 3.7 02:35:34 53° WSW 02:36:32 72° NW 02:41:45 10° NE
Cosmos 1603 3.8 02:31:46 10° NW 02:37:23 56° WSW 02:39:05 41° SSW
NOSS 3-1 (A) 3.4 02:36:02 41° WSW 02:38:08 75° NW 02:44:41 10° NE
Cosmos 1340 Rocket 3.3 02:42:44 43° WNW 02:42:48 43° WNW 02:46:35 10° N
MINOTAUR IV R/B 4.5 02:39:22 10° NNW 02:43:53 89° WSW 02:46:16 27° SSE
Cosmos 2150 Rocket 4.2 02:42:28 36° S 02:44:31 65° ESE 02:49:44 10° NNE
Cosmos 1758 3.7 02:44:28 47° W 02:44:39 47° WNW 02:48:33 10° N
CZ-2D R/B 2.6 02:42:10 10° N 02:47:28 50° WNW 02:49:19 35° WSW
H-2A R/B 4.4 02:45:16 10° ESE 02:48:24 22° ENE 02:51:35 10° NNE
Cosmos 1703 3.7 02:46:35 10° N 02:50:32 60° ENE 02:52:42 24° SSE
Cosmos 1825 Rocket 4.4 02:49:17 10° N 02:53:30 48° ENE 02:57:29 11° SSE
Cosmos 1943 3.4 02:50:26 10° NW 02:55:49 47° WSW 02:57:52 33° SSW
SL-16 R/B 3.2 02:54:31 31° WSW 02:55:56 34° W 03:01:34 10° NNW
Cosmos 1125 Rocket 4.0 02:54:01 26° S 02:56:49 55° ESE 03:01:58 10° NNE
Nadezhda 2 Rocket 4.4 02:52:16 10° N 02:58:30 79° W 03:02:51 20° S
Cosmos 1470 4.0 02:59:40 27° W 02:59:55 27° WNW 03:03:22 10° NNW
USA 215 4.1 02:53:58 10° ENE 03:00:03 39° SE 03:03:50 21° S
Cosmos 1953 2.4 02:59:36 48° SW 03:00:29 63° WNW 03:04:33 10° N
Cosmos 1544 Rocket 4.3 02:59:45 33° W 03:00:36 36° WNW 03:04:45 10° N
IRS-1C 4.3 02:55:16 10° NNE 03:00:37 71° ESE 03:03:50 25° S
IRS-1D 3.5 02:58:41 10° N 03:03:46 69° WNW 03:06:07 33° SW
Cosmos 1328 3.9 03:00:23 10° N 03:04:24 73° E 03:07:02 20° SSE
Cosmos 2227 Rocket 4.4 03:01:28 10° WNW 03:04:35 15° NW 03:07:43 10° N
NPP 4.3 03:01:21 10° N 03:06:23 41° WNW 03:08:34 28° WSW
CZ-2D R/B 4.4 03:06:17 10° NNE 03:10:06 41° E 03:12:51 17° SSE
Resurs 1-4 Rocket 3.4 03:16:02 10° N 03:20:23 27° WNW 03:22:40 20° W
Cosmos 1602 Rocket 4.2 03:16:27 10° NNW 03:20:25 36° W 03:21:32 31° WSW
NOSS 8 (F) 4.1 03:20:18 46° SSW 03:21:05 82° SE 03:24:07 10° NE
Atlas Centaur 2 4.1 03:20:39 15° S 03:22:03 16° S 03:26:15 10° SE
Cosmos 1606 Rocket 3.8 03:19:24 19° S 03:22:37 71° E 03:27:04 10° NNE
NOSS 2-2 (E) 4.4 03:22:45 20° S 03:24:38 33° ESE 03:28:11 10° NE
Meteor 2-16 Rocket 4.5 03:19:14 10° NNW 03:25:18 61° W 03:30:36 14° S
IDEFIX/ARIANE 42P 2.9 03:24:04 10° NNE 03:29:16 67° ESE 03:34:08 12° S
Cosmos 1908 3.4 03:31:23 28° SW 03:33:12 55° WNW 03:37:04 10° N
USA 267 3.7 03:27:01 10° ESE 03:33:29 66° NNE 03:39:57 10° NW
Cosmos 1417 Rocket 4.5 03:29:10 14° S 03:34:41 85° W 03:40:56 10° N
MSX 4.5 03:29:28 10° NNE 03:35:09 55° E 03:40:48 10° S
Cosmos 1726 Rocket 3.7 03:33:34 15° S 03:37:17 80° E 03:41:47 10° NNE
Cosmos 1048 Rocket 4.4 03:32:33 10° NW 03:37:19 39° WSW 03:41:28 13° SSW
IRS-P3 4.4 03:34:17 10° N 03:39:29 54° WNW 03:43:08 19° SW
Cosmos 2228 3.0 03:36:23 19° SSW 03:39:32 77° W 03:43:58 10° N
Cosmos 2263 Rocket 3.2 03:38:22 17° WSW 03:41:51 32° NW 03:46:50 10° NNE
Cosmos 1844 4.2 03:37:25 12° S 03:42:40 60° ESE 03:48:21 10° NNE
Meteor 1-28 Rocket 3.8 03:41:32 23° SSW 03:43:18 36° W 03:46:52 10° NNW
Cosmos 1386 Rocket 4.4 03:40:15 10° N 03:46:17 79° W 03:52:17 10° S
SL-08 R/B 3.9 03:44:25 15° SSW 03:48:07 38° W 03:52:44 10° NNW
CZ-2C R/B 2.9 03:45:01 10° NNE 03:48:50 69° ESE 03:52:31 10° S
Cosmos 1726 4.0 03:48:49 14° W 03:49:48 15° WNW 03:52:03 10° NNW
Cosmos 1356 Rocket 3.3 03:46:41 15° SSW 03:50:05 79° WNW 03:54:12 10° N
ADEOS II 3.0 03:47:21 10° N 03:52:01 33° WNW 03:55:28 16° WSW
ATLAS CENTAUR R/B 2.0 03:49:57 19° WSW 03:52:30 41° NW 03:56:11 10° NNE
Cosmos 1300 2.7 03:49:36 11° S 03:53:16 83° E 03:57:06 10° N
Spot 4 Rocket 4.0 03:48:25 10° NNE 03:53:36 76° WNW 03:58:31 11° SSW
ERS-2 2.2 03:53:05 10° SSE 03:56:43 79° ENE 04:00:24 10° NNW
Cosmos 1269 Rocket 4.0 03:54:15 10° NNW 03:59:31 66° WSW 04:04:45 10° S
CZ-4C R/B 2.8 03:56:18 10° S 03:59:35 71° WSW 04:03:01 10° NNW
Cosmos 2278 Rocket 4.3 03:59:31 10° SSE 04:03:58 24° ESE 04:08:27 10° NE
COSMOS 2441 4.4 03:59:15 10° NNE 04:04:06 82° ESE 04:08:56 10° SSW
Cosmos 1844 Rocket 2.7 03:59:23 13° SSW 04:04:25 79° WNW 04:10:02 10° NNE
Cosmos 1553 Rocket 4.3 04:00:09 13° SW 04:05:24 47° WNW 04:11:20 10° N
CSL-04 DEB 4.5 04:03:01 10° S 04:06:50 51° W 04:10:44 10° NNW
Cosmos 1833 Rocket 4.3 04:03:03 10° NNW 04:08:21 40° NE 04:13:38 10° ESE
NOSS 2-2 (C) 3.3 04:05:43 14° SSW 04:08:45 71° SE 04:12:43 10° NE
Lacrosse 5 rocket 3.8 04:06:34 10° SSE 04:09:41 18° ESE 04:12:50 10° E
NOSS 3-2 (A) 4.3 04:02:27 10° NW 04:09:53 75° NE 04:18:17 10° SE
ARIANE 5 R/B 3.2 04:07:02 10° N 04:11:54 40° WNW 04:16:31 11° SW
USA 281 4.4 04:06:05 10° NE 04:12:16 42° ESE 04:18:24 10° S
Cosmos 1745 Rocket 4.3 04:09:18 10° NNW 04:15:15 46° W 04:21:07 10° SSW
SeaSat 1 3.7 04:10:38 10° NE 04:15:17 39° ESE 04:19:53 10° S
Cosmos 1867 3.6 04:17:34 10° NW 04:23:04 90° SW 04:28:32 10° SE
Cosmos 2058 Rocket 3.3 04:19:38 10° SSW 04:24:01 54° WNW 04:28:23 10° N
H-2A R/B 2.4 04:20:19 10° S 04:24:10 40° W 04:28:04 10° NNW
Cosmos 2058 3.1 04:25:32 10° N 04:29:44 80° ENE 04:33:56 10° SSE
CZ-2C R/B 2.4 04:27:07 10° NNE 04:31:45 81° ESE 04:36:27 10° SSW
Cosmos 1408 3.3 04:28:24 10° N 04:32:06 60° ENE 04:35:45 10° SSE
DEBRIS 1.5 04:30:20 10° WSW 04:32:31 72° SSE 04:34:50 10° ENE
Landsat 5 4.0 04:28:58 10° SSW 04:32:39 35° W 04:36:31 10° NNW
CZ-4B R/B 1.2 04:34:54 10° SSE 04:38:05 90° E 04:41:13 10° NNW
Cosmos 1892 2.7 04:35:35 10° NNW 04:39:25 69° W 04:43:12 10° S
In-Cosmos 22 Rocket 4.3 04:34:02 10° NNW 04:39:48 64° W 04:45:30 10° S
USA 215 3.4 04:36:51 10° NE 04:43:25 78° NNW 04:49:56 10° WSW
